Tyler, TX

7:05 AM CDT on August 18, 2017 (GMT -0500)
Tyler Pounds

Weather History for KTYR - June, 2013

Change the Weather History Date:

Thursday, June 6, 2013

  Actual Average Record
Temperature  
Mean Temperature 73 °F 78 °F  
Max Temperature 79 °F 87 °F 100 °F (2011)
Min Temperature 67 °F 69 °F 52 °F (1970)
Degree Days  
Heating Degree Days 0 0  
Month to date heating degree days 0 0  
Since 1 June heating degree days 0 0  
Since 1 July heating degree days 2013 2269  
Cooling Degree Days 8 13  
Month to date cooling degree days 74 74  
Year to date cooling degree days 471 443  
Since 1 June cooling degree days 74 74  
Growing Degree Days 24 (Base 50)    
Moisture  
Dew Point 67 °F    
Average Humidity 77    
Maximum Humidity 90    
Minimum Humidity 64    
Precipitation  
Precipitation 0.83 in 0.16 in 1.65 in (2001)
Month to date precipitation 0.95 0.92  
Year to date precipitation 14.99 19.85  
Snow  
Snow 0.00 in - - ()
Month to date snowfall 0.0  
Since 1 June snowfall 0.0  
Since 1 July snowfall 1.0  
Snow Depth 0.00 in    
Sea Level Pressure  
Sea Level Pressure 29.87 in    
Wind  
Wind Speed 6 mph (NE)    
Max Wind Speed 23 mph    
Max Gust Speed 32 mph    
Visibility 9 miles    
Events Fog , Rain , Thunderstorm    
T = Trace of Precipitation, MM = Missing Value Source: NWS Daily Summary

Daily Weather History Graph

Daily Weather History Graph

Search for Another Location

Airport or City:

Trip Planner

Search our weather history database for the weather conditions in past years. The results will help you decide how hot, cold, wet, or windy it might be!

Date:

Astronomy

Jun. 06, 2013 Rise Set
Actual Time 6:14 AM CDT 8:26 PM CDT
Civil Twilight 5:46 AM CDT 8:54 PM CDT
Nautical Twilight 5:11 AM CDT 9:29 PM CDT
Astronomical Twilight 4:34 AM CDT 10:06 PM CDT
Moon 4:51 AM CDT (6/6) 6:53 PM CDT (6/6)
Length of Visible Light 15h 08m
Length of Day
14h 12m
Waning Crescent, 3% of the Moon is Illuminated
Jun 6
Waning Crescent
Jun 8
New
Jun 16
First Quarter
Jun 23
Full
Jun 29
Last Quarter

Hourly Weather History & Observations

Time (CDT) Temp. Dew Point Humidity Pressure Visibility Wind Dir Wind Speed Gust Speed Precip Events Conditions
12:53 AM 79.0 °F 71.1 °F 77% 29.84 in 10.0 mi Calm Calm - N/A   Mostly Cloudy
1:53 AM 78.1 °F 71.1 °F 79% 29.83 in 10.0 mi Calm Calm - N/A   Partly Cloudy
2:53 AM 75.9 °F 71.1 °F 85% 29.81 in 10.0 mi NE 3.5 mph - N/A   Clear
3:53 AM 77.0 °F 71.1 °F 82% 29.81 in 10.0 mi ENE 3.5 mph - N/A   Clear
4:53 AM 75.0 °F 71.1 °F 87% 29.80 in 10.0 mi ESE 4.6 mph - N/A   Clear
5:53 AM 75.9 °F 71.1 °F 85% 29.79 in 10.0 mi Calm Calm - N/A   Partly Cloudy
6:53 AM 75.9 °F 71.1 °F 85% 29.84 in 10.0 mi WSW 6.9 mph - N/A   Partly Cloudy
7:53 AM 75.0 °F 63.0 °F 66% 29.88 in 10.0 mi NW 17.3 mph - N/A   Scattered Clouds
8:10 AM 73.4 °F 64.4 °F 73% 29.91 in 10.0 mi WNW 11.5 mph 24.2 mph 0.00 in Rain , Thunderstorm Light Rain
8:38 AM 71.6 °F 66.2 °F 83% 29.85 in 10.0 mi NW 11.5 mph 18.4 mph 0.01 in Rain Light Rain
8:53 AM 71.1 °F 66.0 °F 84% 29.78 in 10.0 mi Variable 4.6 mph - 0.01 in Rain Light Rain
9:53 AM 72.0 °F 66.9 °F 84% 29.85 in 10.0 mi SSE 6.9 mph - 0.00 in   Partly Cloudy
10:53 AM 77.0 °F 66.9 °F 71% 29.88 in 10.0 mi East 9.2 mph - N/A   Partly Cloudy
11:28 AM 73.4 °F 64.4 °F 73% 29.90 in 10.0 mi ENE 9.2 mph - N/A Thunderstorm Mostly Cloudy
11:38 AM 71.6 °F 64.4 °F 78% 29.93 in 1.2 mi SE 15.0 mph - 0.31 in Rain , Thunderstorm Heavy Thunderstorms and Rain
11:46 AM 69.8 °F 66.2 °F 88% 29.92 in 0.5 mi East 13.8 mph 19.6 mph 0.57 in Fog , Rain , Thunderstorm Heavy Thunderstorms and Rain
11:51 AM 69.8 °F 66.2 °F 88% 29.92 in 2.5 mi ESE 11.5 mph - 0.57 in Rain , Thunderstorm Light Thunderstorms and Rain
11:53 AM 70.0 °F 66.9 °F 90% 29.91 in 6.0 mi ESE 9.2 mph - 0.57 in Rain , Thunderstorm Light Thunderstorms and Rain
12:35 PM 71.6 °F 66.2 °F 83% 29.92 in 2.0 mi ENE 9.2 mph - 0.04 in Rain , Thunderstorm Light Rain
12:45 PM 71.6 °F 66.2 °F 83% 29.91 in 10.0 mi East 10.4 mph - 0.04 in Rain , Thunderstorm Light Rain
12:53 PM 72.0 °F 68.0 °F 87% 29.88 in 10.0 mi ENE 10.4 mph - 0.04 in Rain Light Rain
1:04 PM 71.6 °F 68.0 °F 88% 29.90 in 10.0 mi ENE 8.1 mph - 0.00 in   Overcast
1:14 PM 71.6 °F 68.0 °F 88% 29.88 in 10.0 mi East 13.8 mph 20.7 mph 0.00 in Thunderstorm Overcast
1:25 PM 73.4 °F 68.0 °F 83% 29.90 in 10.0 mi East 10.4 mph - 0.00 in Thunderstorm Overcast
1:32 PM 71.6 °F 66.2 °F 83% 29.90 in 10.0 mi East 11.5 mph - 0.00 in Thunderstorm Thunderstorm
1:44 PM 71.6 °F 66.2 °F 83% 29.89 in 10.0 mi East 8.1 mph - 0.00 in Thunderstorm Overcast
1:53 PM 72.0 °F 66.9 °F 84% 29.86 in 10.0 mi ENE 9.2 mph - 0.00 in Rain , Thunderstorm Light Rain
2:18 PM 71.6 °F 66.2 °F 83% 29.87 in 10.0 mi NNE 9.2 mph - 0.00 in Rain Light Rain
2:32 PM 71.6 °F 66.2 °F 83% 29.86 in 5.0 mi NE 9.2 mph - 0.03 in Rain , Thunderstorm Thunderstorms and Rain
2:53 PM 70.0 °F 66.9 °F 90% 29.86 in 3.0 mi Calm Calm - 0.11 in Rain , Thunderstorm Thunderstorms and Rain
3:14 PM 71.6 °F 66.2 °F 83% 29.89 in 2.5 mi Calm Calm - 0.06 in Rain Heavy Rain
3:24 PM 69.8 °F 66.2 °F 88% 29.89 in 3.0 mi Calm Calm - 0.10 in Rain , Thunderstorm Rain
3:43 PM 71.6 °F 68.0 °F 88% 29.88 in 10.0 mi North 6.9 mph - 0.10 in Rain Light Rain
3:53 PM 71.1 °F 68.0 °F 90% 29.86 in 10.0 mi North 8.1 mph - 0.10 in   Overcast
4:53 PM 72.0 °F 66.9 °F 84% 29.85 in 10.0 mi ENE 4.6 mph - N/A   Mostly Cloudy
5:27 PM 71.6 °F 66.2 °F 83% 29.87 in 10.0 mi Calm Calm - N/A   Overcast
5:53 PM 73.9 °F 68.0 °F 82% 29.85 in 10.0 mi NE 5.8 mph - N/A   Overcast
6:31 PM 75.2 °F 66.2 °F 73% 29.86 in 10.0 mi North 5.8 mph - N/A   Overcast
6:53 PM 75.9 °F 66.9 °F 74% 29.85 in 10.0 mi North 4.6 mph - N/A   Overcast
7:53 PM 73.9 °F 66.9 °F 79% 29.87 in 10.0 mi North 4.6 mph - N/A   Scattered Clouds
8:51 PM 71.6 °F 66.2 °F 83% 29.89 in 10.0 mi North 3.5 mph - 0.00 in Rain Light Rain
8:53 PM 72.0 °F 66.9 °F 84% 29.88 in 10.0 mi North 3.5 mph - 0.00 in Rain Light Rain
9:12 PM 71.6 °F 66.2 °F 83% 29.90 in 10.0 mi North 4.6 mph - 0.00 in   Mostly Cloudy
9:53 PM 71.1 °F 66.9 °F 87% 29.89 in 10.0 mi North 4.6 mph - 0.00 in   Clear
10:53 PM 69.1 °F 66.0 °F 90% 29.91 in 10.0 mi Calm Calm - N/A   Clear
11:53 PM 69.1 °F 66.0 °F 90% 29.92 in 10.0 mi Calm Calm - N/A   Clear